SCP
0 0 0 0 0 0 0 0 0 0 0 1 1 1 1 1 1 1 1 1 2 2 2 2 2 2 2 2 2 2 2 2 1 1 1 1 1 1 1 1 1 1 1 1
0 0 0 0 0 0 0 0 0 0 0 1 1 1 1 1 1 1 1 1 2 2 2 2 2 2 2 2 2 2 2 2 1 1 1 1 1 1 1 1 1 1 1 1
0 0 0 0 0 0 0 0 0 0 0 1 1 1 1 1 1 1 1 2 2 2 2 2 2 2 2 2 2 2 2 2 2 1 1 1 1 1 1 1 1 1 1 1
0 0 0 0 0 0 0 0 0 0 1 1 1 1 1 2 2 2 2 2 2 2 2 2 2 2 2 2 2 2 2 2 2 1 1 1 1 1 1 1 1 1 1 1
0 0 0 0 0 0 0 0 0 1 1 1 1 1 1 2 2 2 1 1 1 2 2 2 2 2 2 2 2 2 2 2 2 1 1 1 1 1 1 1 1 1 1 1
0 0 0 0 0 0 0 0 1 1 1 1 1 1 1 2 2 1 1 1 1 1 2 2 2 2 2 2 2 2 2 2 1 1 1 1 1 2 2 2 1 1 1 1
0 0 0 0 0 0 0 1 1 1 1 1 1 2 2 2 2 2 1 1 1 1 2 2 2 2 2 2 2 2 2 2 2 1 1 1 2 2 2 2 1 1 1 1
0 0 0 0 0 0 1 1 1 1 1 1 2 2 2 2 2 1 1 1 1 1 2 2 2 2 2 2 2 2 2 2 2 2 2 2 2 2 2 1 1 1 1 1
1 1 1 1 1 1 1 1 1 1 1 1 1 2 2 2 1 1 1 1 1 1 1 2 2 2 2 2 2 2 2 2 2 2 2 2 2 2 1 1 1 1 1 1
1 1 1 1 1 1 1 1 1 1 1 1 1 1 1 1 1 1 1 1 1 1 1 2 2 2 2 2 2 2 2 1 1 1 1 2 2 1 1 1 1 1 1 1
1 1 1 1 1 1 1 1 1 1 1 1 1 1 1 1 1 1 1 1 1 1 1 2 2 2 2 2 2 2 1 1 1 1 1 1 1 1 1 1 1 1 1 1
1 1 1 1 1 1 1 1 1 1 1 1 1 1 1 1 1 1 1 1 1 1 1 2 2 2 2 2 2 2 2 1 1 1 1 1 1 1 1 1 0 0 1 1
1 1 1 1 1 1 1 1 1 1 1 1 1 1 1 1 1 1 1 1 1 1 1 2 2 2 2 2 2 2 2 1 1 1 1 1 1 1 1 1 0 0 0 0
1 1 1 1 1 1 1 1 1 1 1 1 1 1 1 1 1 1 1 1 1 1 1 1 2 2 2 2 2 2 1 1 1 1 1 1 1 1 1 1 0 0 0 0
1 1 1 1 1 1 1 1 1 1 1 1 1 1 1 1 1 1 1 1 1 1 1 1 1 2 2 2 2 2 1 1 1 1 1 1 1 1 1 1 1 0 0 0
1 1 1 1 1 1 0 0 1 1 1 1 1 1 1 1 1 1 1 1 1 1 1 1 1 2 2 1 1 1 1 1 1 1 1 1 1 1 1 1 1 0 0 0
1 1 1 1 0 0 0 0 0 1 1 1 1 1 1 1 1 1 1 1 1 1 1 1 1 1 1 1 1 1 1 1 1 1 1 1 1 1 1 1 0 0 0 0
0 0 0 0 0 0 0 0 0 1 1 1 1 1 1 1 1 1 1 1 1 1 1 1 1 1 1 1 1 1 1 1 1 1 1 1 1 1 0 0 0 0 0 0
0 0 0 0 0 0 0 0 0 1 1 1 1 1 1 1 1 1 1 1 1 1 1 1 1 1 1 1 1 1 1 1 1 1 1 1 0 0 0 0 0 0 0 0
0 0 0 0 0 0 0 0 0 0 0 1 1 1 1 1 1 1 1 1 1 1 1 1 1 1 1 1 1 1 1 1 1 1 1 0 0 0 0 0 0 0 0 0
0 0 0 0 0 0 0 0 0 0 0 0 1 1 1 1 1 1 1 1 1 1 1 1 1 1 1 1 0 0 0 0 0 0 0 0 0 0 0 0 0 0 0 0
0 0 0 0 0 0 0 0 0 0 0 0 1 1 1 1 1 1 1 1 1 1 1 1 1 1 1 0 0 0 0 0 0 0 0 0 0 0 0 0 0 0 0 0
0 0 0 0 0 0 0 0 0 0 0 1 1 1 1 1 1 1 1 1 1 1 1 1 0 0 0 0 0 0 0 0 0 0 0 0 0 0 0 0 0 0 0 0
0 0 0 0 0 0 0 0 0 1 1 1 0 1 1 1 1 1 1 0 0 0 0 0 0 0 0 0 0 0 0 0 0 0 0 0 0 0 0 0 0 0 0 0
0 0 0 0 0 0 0 0 0 0 0 0 0 0 0 1 1 1 1 0 0 0 0 0 0 0 0 0 0 0 0 0 0 0 0 0 0 0 0 0 0 0 0 0
0 0 0 0 0 0 0 0 0 0 0 0 0 0 0 1 1 1 1 1 0 0 0 0 0 0 0 0 0 0 0 0 0 0 0 0 0 0 0 0 0 0 0 0
0 0 0 0 0 0 0 0 0 0 0 0 0 0 1 1 1 1 1 1 1 1 0 0 0 0 0 0 0 0 0 0 0 0 0 0 0 0 0 0 0 0 0 0
Wind_Speed
13 14 11 11 12 13 13 11 8 6 6 7 8 8 7 7 9 9 8 7 6 5 6 5 5 5 5 5 5 6 6 5 5 4 4 4 3 2 2 2 2 1 1 1
13 14 14 12 12 11 12 10 8 6 3 5 7 8 8 7 8 8 7 7 7 6 5 5 4 4 4 4 4 5 5 5 4 4 4 4 3 3 2 2 1 1 1 1
12 12 15 15 12 10 10 10 8 5 3 6 7 6 7 7 7 6 7 6 5 4 4 4 4 4 4 4 4 4 5 5 5 5 4 3 4 3 3 2 2 2 2 1
11 11 16 9 8 7 5 3 3 2 3 4 7 6 6 7 7 5 6 6 4 3 3 3 4 5 4 5 4 4 5 4 4 5 4 3 3 3 3 2 2 2 2 2
10 12 13 8 6 7 4 2 1 1 2 5 6 6 6 7 7 6 6 5 4 3 3 3 3 4 4 4 4 4 4 4 4 4 4 4 4 3 3 3 2 3 2 2
10 12 10 5 5 5 4 3 1 1 1 3 4 4 4 5 5 6 6 5 4 3 3 3 2 3 3 4 4 3 3 3 4 3 3 4 4 4 3 3 3 3 3 2
12 11 6 4 5 5 5 0 2 2 3 4 3 3 7 5 5 6 6 5 4 4 4 3 3 3 2 2 2 2 2 2 3 3 3 4 4 3 3 3 3 4 3 3
10 11 4 5 4 2 3 5 3 3 4 6 6 6 7 6 5 5 5 5 4 4 3 3 3 2 2 2 1 1 1 2 2 2 3 3 2 2 3 3 4 4 3 3
2 1 4 6 5 4 4 3 3 3 5 6 5 4 5 5 5 4 4 3 3 3 3 3 3 2 2 1 1 1 1 1 2 2 2 2 3 3 3 3 3 3 3 4
2 3 3 3 4 4 5 3 2 3 3 5 4 4 3 3 3 3 2 2 2 3 2 2 2 2 2 2 2 2 2 2 2 2 2 2 2 3 3 3 3 3 3 3
1 2 1 2 3 4 3 3 2 2 2 3 3 3 3 3 2 2 1 1 1 2 2 2 2 2 2 2 2 1 2 2 2 3 3 2 2 2 2 2 2 3 2 2
1 1 1 1 3 3 3 3 3 2 2 1 2 2 3 3 2 1 0 0 1 1 1 1 1 2 2 2 3 3 3 3 3 3 3 3 3 2 1 1 1 2 2 2
2 2 2 2 2 3 3 3 3 2 1 2 1 1 1 2 2 2 1 1 1 1 1 1 2 2 2 2 3 3 4 4 4 4 3 4 4 4 3 1 0 1 2 3
4 2 1 1 2 2 2 3 3 2 0 1 1 0 0 0 1 1 1 1 1 1 1 2 2 2 2 2 3 4 5 5 4 4 3 4 4 3 3 3 3 3 3 4
2 2 1 1 1 1 1 1 2 1 2 1 0 0 0 1 1 2 1 1 2 2 2 2 2 1 1 3 4 4 5 3 3 3 3 3 2 2 3 3 3 3 2 2
2 2 1 1 2 2 2 2 2 1 1 1 1 1 1 1 2 2 2 2 2 3 2 1 2 2 2 3 3 3 3 4 4 3 3 2 2 2 3 3 3 2 2 2
2 2 2 2 2 2 2 2 2 2 2 2 2 1 2 2 3 3 3 3 2 2 2 2 2 2 2 2 3 4 4 3 4 4 3 2 3 3 3 3 3 2 2 2
2 2 2 2 3 2 2 2 2 3 3 3 2 3 3 3 4 3 4 3 3 2 2 2 2 2 2 2 2 4 3 3 3 3 3 2 3 3 3 3 3 3 2 2
1 1 1 2 2 2 2 3 2 3 3 3 3 4 3 4 4 3 3 3 3 2 2 1 2 3 3 2 2 3 4 4 3 3 2 3 4 4 3 3 3 3 2 2
1 1 2 2 2 2 2 2 3 2 3 3 4 3 4 3 3 3 3 2 2 2 2 1 2 2 2 2 3 4 4 4 3 2 2 3 3 3 3 3 3 3 2 2
1 1 2 1 1 2 2 2 2 2 3 4 4 4 4 3 3 3 2 2 0 1 2 2 2 1 1 1 4 5 3 3 2 2 2 2 2 2 2 3 3 2 1 2
1 1 1 2 1 1 1 1 1 3 3 3 4 3 3 3 3 2 1 1 1 0 1 1 1 0 1 2 3 3 2 2 1 1 1 2 2 2 2 2 2 2 2 2
1 1 1 1 1 1 1 1 2 3 3 3 3 3 3 2 2 2 1 1 1 1 2 1 1 1 2 3 3 3 2 2 2 1 2 1 2 2 2 2 2 2 2 2
0 0 1 0 1 1 1 2 3 2 2 3 2 2 2 2 1 1 0 1 1 2 0 1 2 1 3 3 3 2 2 1 1 2 2 2 2 2 2 2 3 2 2 2
1 0 0 0 0 0 1 1 1 1 2 1 1 1 1 1 1 1 1 1 2 2 1 2 2 2 2 2 2 2 2 2 2 3 3 2 3 2 2 2 3 2 2 2
1 0 0 1 1 1 1 1 1 1 1 1 2 2 2 1 1 1 1 1 2 1 0 1 1 1 1 2 2 2 2 2 2 2 2 2 2 2 2 2 3 3 3 2
1 1 0 0 0 1 1 1 1 1 2 2 2 3 3 2 2 2 1 1 1 1 1 1 1 1 1 2 2 2 2 2 2 2 2 2 2 2 3 3 3 3 3 3
Wind_Direction
258 268 257 239 242 242 247 256 253 230 199 174 155 141 139 137 129 123 122 120 117 119 120 121 125 135 141 149 149 151 156 162 158 154 149 150 154 158 156 167 170 146 175 221
251 256 259 253 246 239 242 244 235 229 213 156 133 138 141 136 131 128 128 126 125 125 130 132 133 137 137 140 150 148 152 153 151 154 157 161 163 167 167 173 176 174 200 214
252 252 259 249 245 240 239 245 245 237 197 155 144 140 140 133 126 128 127 119 118 123 128 133 136 133 134 134 141 148 153 157 158 158 165 177 183 175 179 188 188 195 213 196
253 252 251 254 259 249 237 254 287 138 146 136 125 134 123 118 122 124 119 117 115 122 117 132 145 145 145 150 153 162 165 165 164 164 169 177 188 193 194 194 204 212 220 215
248 244 246 250 249 261 248 241 326 285 155 148 143 142 126 124 128 131 122 120 122 126 119 103 124 137 148 159 158 168 174 173 176 177 180 185 198 200 196 199 209 217 217 215
246 249 248 254 278 283 255 224 19 18 77 140 159 178 124 106 113 116 113 112 111 115 101 89 93 119 139 166 165 171 172 175 177 177 195 201 199 198 200 204 213 226 223 209
243 250 254 306 311 286 254 204 53 49 67 83 80 68 100 104 100 101 107 109 108 105 101 95 93 109 137 153 161 158 151 162 177 183 197 207 196 195 198 205 213 225 222 211
240 246 244 352 347 15 60 52 59 69 77 78 81 90 101 105 97 100 108 114 112 102 104 105 113 122 134 144 131 133 160 182 185 184 203 191 186 203 211 220 222 218 217 224
233 175 67 30 39 47 53 64 54 66 83 93 101 111 108 114 117 114 110 107 111 111 111 111 119 133 154 128 122 144 164 197 189 193 200 183 187 198 207 218 225 222 218 227
116 118 91 49 37 29 30 25 67 91 94 106 120 113 100 95 105 114 112 125 123 118 120 118 128 143 139 130 147 175 184 210 203 198 212 193 198 209 217 218 227 228 225 231
120 119 99 39 26 25 29 14 28 86 119 130 131 129 116 97 74 78 107 121 116 120 143 153 160 158 146 140 151 200 208 205 219 224 216 203 216 246 241 238 227 226 236 234
244 49 20 29 25 19 13 2 351 355 30 94 132 126 117 105 89 80 14 141 152 153 159 152 165 173 166 171 182 205 224 225 232 229 213 205 205 223 336 260 206 193 193 187
15 21 26 34 22 11 5 343 329 339 29 45 55 82 127 141 167 182 192 235 240 197 176 176 177 193 195 192 197 215 234 236 239 236 228 218 218 215 212 219 301 263 222 197
25 30 23 9 347 341 350 329 322 317 24 58 45 10 279 183 216 219 208 227 256 248 237 224 210 209 202 203 213 228 241 241 238 234 230 226 218 219 215 213 214 224 235 209
357 331 303 311 330 337 349 306 295 322 355 14 35 308 311 292 279 280 280 259 255 246 232 231 229 220 212 225 231 241 246 245 242 250 239 233 227 225 228 227 226 209 183 172
303 300 261 260 269 271 263 271 287 313 328 325 320 349 328 297 298 296 287 263 255 258 238 231 239 229 226 230 234 246 240 238 235 245 247 234 236 238 232 230 236 227 205 180
274 271 268 266 265 278 296 307 307 292 289 279 286 300 287 281 288 295 290 278 268 252 230 226 242 241 234 230 241 252 249 229 221 235 238 227 234 243 246 246 251 254 229 179
293 309 321 302 291 295 293 288 283 283 284 285 285 279 274 278 278 282 288 289 283 264 255 251 244 239 232 234 254 267 262 246 225 229 225 218 233 239 238 237 244 252 250 194
246 273 291 307 301 303 305 308 303 296 293 292 285 279 278 275 275 278 281 279 279 275 273 268 233 242 242 218 259 260 257 253 238 232 229 219 233 242 244 242 242 244 237 200
233 240 253 252 244 269 277 285 295 289 288 295 293 294 291 290 290 285 281 268 263 284 275 261 234 237 245 232 256 256 254 254 243 230 231 235 241 248 249 259 260 254 244 226
229 252 246 236 244 262 271 281 292 292 290 290 287 285 285 285 286 291 283 275 312 343 299 238 217 228 246 285 265 263 258 252 243 234 233 240 247 256 259 267 275 274 257 246
21 344 307 291 275 267 272 277 294 296 294 292 287 283 281 278 272 268 267 275 265 198 246 245 227 359 313 285 258 265 280 282 268 261 253 252 250 256 268 272 274 266 247 239
21 329 300 290 291 289 287 289 292 293 295 296 294 293 289 283 278 273 269 233 217 216 256 301 23 59 318 274 265 261 270 287 294 284 274 275 270 262 266 269 266 267 259 257
118 253 291 330 321 294 306 304 301 295 281 281 277 275 275 276 273 278 255 118 132 163 264 96 139 198 263 266 280 292 296 301 312 297 278 275 271 262 264 274 277 278 271 269
79 50 55 64 303 312 274 252 276 305 310 315 317 308 278 270 279 334 48 102 139 162 147 133 176 227 262 300 316 325 329 337 320 300 288 284 286 290 284 279 284 289 283 277
145 223 47 356 360 336 310 308 316 357 7 350 345 351 7 34 61 61 50 70 86 93 32 83 147 223 283 315 323 330 327 317 303 306 323 318 312 314 318 313 312 308 305 311
143 139 141 176 74 12 359 18 48 46 29 27 25 22 25 34 42 39 30 26 50 55 21 7 3 333 314 312 324 337 330 306 302 316 312 317 323 329 327 326 320 319 321 328